DG3RAP-11 Weather Reports


time (UTC)temp
F
wind
direction
speed
knots
gust
knots
rain 1hr
in
rain 24hr
in
rain mn
in
humidity
%
barometer
mb
20260507051803 50 261 3.5 7.8 0.00 0.00 0.00 87 1011.1
20260507050903 50 250 1.7 3.5 0.00 0.00 0.00 86 1010.9
20260507050003 49 261 0.9 3.5 0.00 0.00 0.00 89 1010.8
20260507045403 48 256 1.7 6.1 0.00 0.00 0.00 90 1010.8
20260507044503 47 275 1.7 7.0 0.00 0.00 0.00 92 1010.9
20260507043603 47 275 1.7 7.0 0.00 0.00 0.00 93 1010.6
20260507042703 47 283 0.0 3.5 0.00 0.00 0.00 93 1010.9
20260507041803 47 288 0.9 3.5 0.00 0.00 0.00 94 1010.7
20260507040903 47 288 1.7 3.5 0.00 0.00 0.00 94 1010.4
20260507040003 47 290 1.7 3.5 0.00 0.00 0.00 94 1010.4
20260507035403 47 285 1.7 3.5 0.00 0.00 0.00 94 1010.2
20260507034503 47 290 0.9 5.2 0.00 0.00 0.00 93 1010.3
20260507033603 47 295 1.7 5.2 0.00 0.00 0.00 93 1010.1
20260507032703 47 307 0.0 3.5 0.00 0.00 0.00 92 1010.3
20260507031803 47 282 1.7 3.5 0.00 0.00 0.00 92 1010.3
20260507030903 48 285 1.7 5.2 0.00 0.00 0.00 91 1010.3
20260507030003 48 258 1.7 6.1 0.00 0.00 0.00 91 1010.1
20260507025403 49 281 1.7 7.0 0.00 0.00 0.00 90 1009.8
20260507024503 49 289 4.3 11.3 0.00 0.00 0.00 89 1009.8
20260507023603 49 279 6.1 9.6 0.00 0.00 0.00 89 1010.1
20260507022703 49 271 3.5 9.6 0.00 0.00 0.00 89 1009.9
20260507021803 49 275 6.1 11.3 0.00 0.00 0.00 89 1010.0
20260507020903 49 274 6.1 13.0 0.00 0.00 0.00 88 1009.8
20260507020003 49 267 5.2 9.6 0.00 0.00 0.00 88 1009.8
20260507015403 50 279 4.3 11.3 0.00 0.00 0.00 88 1009.8
20260507014503 50 270 1.7 7.0 0.00 0.00 0.00 88 1009.6
20260507013603 50 258 2.6 7.0 0.00 0.00 0.00 89 1009.6
20260507012703 50 269 3.5 9.6 0.00 0.00 0.00 89 1009.5
20260507011803 50 276 1.7 7.0 0.00 0.00 0.00 89 1009.3
20260507010903 50 274 3.5 9.6 0.00 0.00 0.00 89 1009.3
20260507010003 50 269 2.6 7.8 0.00 0.00 0.00 89 1009.3
20260507005403 50 278 0.9 9.6 0.00 0.00 0.00 89 1009.2
20260507004503 51 288 3.5 9.6 0.00 0.00 0.00 89 1009.3
20260507003603 51 259 1.7 7.0 0.00 0.00 0.00 89 1009.5
20260507002704 51 277 2.6 9.6 0.00 0.00 0.00 88 1009.2
20260507001803 51 267 3.5 11.3 0.00 0.00 0.00 88 1009.1
20260507000903 51 310 3.5 7.8 0.00 0.00 0.00 88 1009.4
20260507000003 51 282 5.2 9.6 0.00 0.00 0.00 87 1009.1
20260506235403 52 273 3.5 9.6 0.00 0.00 0.00 87 1009.1
20260506234503 52 290 2.6 15.6 0.00 0.00 0.00 87 1009.3
20260506233603 52 293 8.7 15.6 0.00 0.00 0.00 87 1009.3
20260506232703 52 264 10.4 13.9 0.00 0.00 0.00 87 1009.5
20260506231803 52 272 7.0 13.9 0.00 0.00 0.00 87 1009.4
20260506230903 52 268 8.7 13.9 0.00 0.00 0.00 87 1009.1
20260506230004 52 267 3.5 9.6 0.00 0.00 0.00 88 1008.9
20260506225403 53 273 3.5 9.6 0.00 0.00 0.00 89 1009.1
20260506224503 53 273 3.5 9.6 0.00 0.00 0.00 89 1009.1
20260506223603 53 261 3.5 9.6 0.00 0.00 0.00 89 1008.9
20260506222703 53 250 2.6 7.0 0.00 0.00 0.00 89 1008.8
20260506221803 53 270 3.5 9.6 0.00 0.00 0.00 90 1009.1
20260506220903 53 261 4.3 9.6 0.00 0.00 0.00 90 1008.9
20260506220003 53 269 1.7 11.3 0.00 0.00 0.00 90 1008.8
20260506215403 52 275 4.3 11.3 0.00 0.00 0.00 90 1008.7
20260506214503 52 260 5.2 12.2 0.00 0.00 0.00 90 1008.8
20260506213603 52 264 5.2 12.2 0.00 0.00 0.00 90 1008.8
20260506212703 52 280 3.5 7.8 0.00 0.00 0.00 89 1008.8
20260506211803 52 264 4.3 7.8 0.00 0.00 0.00 87 1008.4
20260506210903 53 286 2.6 7.0 0.00 0.00 0.00 86 1008.2
20260506210003 53 282 3.5 11.3 0.00 0.00 0.00 85 1008.4
20260506205403 53 273 3.5 11.3 0.00 0.00 0.00 84 1008.1
20260506204503 53 275 5.2 9.6 0.00 0.00 0.00 83 1007.9
20260506203603 53 283 5.2 9.6 0.00 0.00 0.00 83 1008.1
20260506202703 53 276 7.0 9.6 0.00 0.00 0.00 82 1008.0
20260506201803 54 293 4.3 13.9 0.00 0.00 0.00 83 1008.0
20260506200903 54 286 3.5 11.3 0.00 0.00 0.00 83 1008.0
20260506200003 55 274 4.3 12.2 0.00 0.00 0.00 83 1007.9
20260506195403 55 277 5.2 7.8 0.00 0.00 0.00 84 1007.7
20260506194503 55 290 6.1 9.6 0.00 0.00 0.00 83 1007.6
20260506193603 56 284 6.1 13.0 0.00 0.00 0.00 81 1007.3
20260506192703 56 275 3.5 6.1 0.00 0.00 0.00 76 1007.0
20260506191803 56 272 3.5 6.1 0.00 0.00 0.00 74 1006.9
20260506190903 57 285 3.5 11.3 0.00 0.00 0.00 72 1006.7
20260506190004 58 290 6.1 13.9 0.00 0.00 0.00 71 1006.9
20260506185403 58 286 7.8 14.8 0.00 0.00 0.00 70 1006.6
20260506184503 58 269 5.2 21.7 0.00 0.00 0.00 75 1006.6
20260506183603 58 270 2.6 9.6 0.00 0.00 0.00 79 1006.0
20260506182703 58 263 3.5 6.1 0.00 0.00 0.00 80 1006.2
20260506181803 57 328 1.7 3.5 0.00 0.00 0.00 82 1006.0
20260506180903 58 342 0.9 1.7 0.00 0.00 0.00 83 1005.8
20260506180004 58 2 0.9 3.5 0.00 0.00 0.00 84 1005.2
20260506175403 58 110 0.0 7.0 0.00 0.00 0.00 82 1005.1
20260506174503 59 88 1.7 7.0 0.00 0.00 0.00 81 1004.9
20260506173603 59 72 1.7 6.1 0.00 0.00 0.00 80 1004.9
20260506172703 59 77 3.5 7.0 0.00 0.00 0.00 80 1004.3
20260506171803 60 49 1.7 3.5 0.00 0.00 0.00 77 1004.4
20260506170903 60 67 0.9 5.2 0.00 0.00 0.00 76 1004.8
20260506170003 60 330 0.9 5.2 0.00 0.00 0.00 76 1004.6
20260506165403 61 70 2.6 9.6 0.00 0.00 0.00 72 1004.4
20260506164503 64 335 1.7 5.2 0.00 0.00 0.00 61 1004.4
20260506163603 64 272 1.7 6.1 0.00 0.01 0.00 59 1004.7
20260506162703 65 278 2.6 6.1 0.00 0.04 0.00 54 1005.0
20260506161803 65 271 0.0 1.7 0.00 0.05 0.00 53 1004.5
20260506160903 65 273 0.9 3.5 0.00 0.06 0.00 55 1004.8
20260506160003 65 272 0.9 1.7 0.00 0.06 0.00 57 1004.5
20260506155403 66 273 0.9 1.7 0.00 0.06 0.00 50 1004.3
20260506154503 67 277 1.7 1.7 0.00 0.06 0.00 50 1004.4
20260506153603 67 256 1.7 3.5 0.00 0.06 0.00 51 1004.4
20260506152703 67 160 1.7 1.7 0.00 0.06 0.00 48 1004.4
20260506151803 67 112 1.7 1.7 0.00 0.06 0.00 46 1004.3
20260506150903 67 130 0.0 3.5 0.00 0.06 0.00 47 1004.2
20260506150003 69 143 0.9 1.7 0.00 0.06 0.00 45 1004.4
20260506145403 69 113 0.9 1.7 0.00 0.06 0.00 46 1004.5
20260506144503 67 134 0.9 1.7 0.00 0.06 0.00 47 1004.5
20260506143603 68 180 0.0 1.7 0.00 0.06 0.00 47 1004.6
20260506142703 68 153 0.0 1.7 0.00 0.06 0.00 45 1004.7
20260506141803 68 142 0.9 1.7 0.00 0.06 0.00 44 1004.6
20260506140903 69 109 0.0 1.7 0.00 0.06 0.00 44 1004.9
20260506140003 68 90 0.0 1.7 0.00 0.06 0.00 45 1004.8
20260506135403 68 90 1.7 1.7 0.00 0.06 0.00 46 1004.8
20260506134503 67 90 0.0 3.5 0.00 0.06 0.00 48 1004.9
20260506133603 69 90 1.7 1.7 0.00 0.06 0.00 48 1004.9
20260506132703 68 106 0.9 3.5 0.00 0.06 0.00 45 1005.0
20260506131803 67 116 1.7 3.5 0.00 0.06 0.00 47 1005.1
20260506130903 70 126 0.0 1.7 0.00 0.06 0.00 46 1004.9
20260506130004 68 167 0.0 1.7 0.00 0.06 0.00 48 1005.3
20260506125403 68 55 0.0 3.5 0.00 0.06 0.00 48 1005.3
20260506124503 65 47 3.5 3.5 0.00 0.06 0.00 54 1005.2
20260506123603 67 54 0.9 3.5 0.00 0.06 0.00 54 1005.2
20260506122703 67 72 0.9 3.5 0.00 0.06 0.00 55 1005.3
20260506121803 68 91 0.9 3.5 0.00 0.06 0.00 53 1005.6
20260506120903 66 62 1.7 6.1 0.00 0.06 0.00 55 1005.7
20260506120003 65 62 3.5 6.1 0.00 0.06 0.00 58 1006.1
20260506115403 65 38 1.7 5.2 0.00 0.06 0.00 56 1006.0
20260506114503 68 65 1.7 3.5 0.00 0.06 0.00 52 1006.1
20260506113603 68 334 0.9 3.5 0.00 0.06 0.00 50 1006.4
20260506112703 66 21 1.7 3.5 0.00 0.06 0.00 52 1006.2
20260506111803 66 56 0.9 3.5 0.00 0.06 0.00 58 1006.2
20260506110903 65 76 1.7 3.5 0.00 0.06 0.00 60 1006.2
20260506110003 65 309 1.7 1.7 0.00 0.06 0.00 59 1006.6
20260506105403 66 328 0.9 3.5 0.00 0.06 0.00 58 1006.7
20260506104503 64 337 0.9 3.5 0.00 0.06 0.00 61 1006.6
20260506103603 65 279 1.7 5.2 0.00 0.06 0.00 63 1006.7
20260506102703 64 96 0.9 3.5 0.00 0.06 0.00 63 1006.9
20260506101803 64 51 1.7 5.2 0.00 0.06 0.00 65 1006.8
20260506100903 63 73 0.9 6.1 0.00 0.06 0.00 67 1006.9
20260506100003 65 65 0.9 3.5 0.00 0.06 0.00 64 1006.9
20260506095403 62 71 0.9 5.2 0.00 0.06 0.00 68 1007.1
20260506094503 62 73 2.6 5.2 0.00 0.06 0.00 69 1006.8
20260506093603 61 85 2.6 6.1 0.00 0.06 0.00 71 1007.0
20260506092703 62 58 3.5 6.1 0.00 0.06 0.00 70 1007.1
20260506091803 60 62 3.5 6.1 0.00 0.06 0.00 75 1006.9
20260506090903 60 72 1.7 5.2 0.00 0.06 0.00 76 1007.1
20260506090003 60 66 1.7 5.2 0.00 0.06 0.00 76 1007.0
20260506085403 60 36 1.7 3.5 0.00 0.06 0.00 77 1006.9
20260506084503 61 42 1.7 3.5 0.00 0.06 0.00 76 1007.0
20260506083603 61 19 1.7 3.5 0.00 0.06 0.00 74 1007.0
20260506082703 61 46 0.9 3.5 0.00 0.06 0.00 74 1007.0
20260506081803 60 69 0.9 6.1 0.00 0.06 0.00 77 1007.2
20260506080903 59 85 2.6 6.1 0.00 0.06 0.00 79 1007.4
20260506072703 57 99 1.7 6.1 0.00 0.06 0.00 82 1007.2
20260506071803 56 81 4.3 7.0 0.00 0.06 0.00 84 1007.1
20260506070903 56 67 2.6 6.1 0.00 0.06 0.00 86 1007.2
20260506061803 55 112 1.7 3.5 0.00 0.06 0.00 85 1007.0
20260506060903 55 134 0.9 3.5 0.00 0.06 0.00 87 1007.3